Tracking 25949 objects as of 8-Aug-2022
HD Live streaming from Space Station
objects crossing your sky now

STARLINK-1541

Track STARLINK-1541 now!
10-day predictions
STARLINK-1541 is classified as:


NORAD ID: 46052
Int'l Code: 2020-055AB
Perigee: 553.3 km
Apogee: 555.3 km
Inclination: 53.1 °
Period: 95.6 minutes
Semi major axis: 6925 km
RCS: Unknown
Launch date: August 7, 2020
Source: United States (US)
Launch site: AIR FORCE EASTERN TEST RANGE (AFETR)
aabbcc
Your satellite tracking list
Your tracking list is empty




NASA's NSSDC Master Catalog

Two Line Element Set (TLE):
1 46052U 20055AB  22220.32937271 -.00003070  00000-0 -18716-3 0  9999
2 46052  53.0562 234.5620 0001450  67.8724 292.2419 15.06423653111160
Source of the keplerian elements: AFSPC